Date String (YYYY-MM-DD hh:mm:ss) UTC,Instrument flags,Ambient pressure (hPa),Sample flow (lpm),Bypass flow (lpm),Sample temperature (°C),Ambient temperature (°C),ASC tube jacket temperature (°C),LED temperature (°C),Box temperature (°C),Sample RH (%),Span deviation,Mass concentration (μg/m³),Mass concentration (μg/m³),Mass concentration (μg/m³)
DateTimeUTC,F1_M11,P_M11,Q1_M11,Q2_M11,T1_M11,T2_M11,T3_M11,T4_M11,T5_M11,U1_M11,ZSPAN_M11,X0_M11,X2_M11,X1_M11
2022-08-14 08:00:00,,0829.0,4.99,0.00,30.4,28.4,00.0,38.7,31.7,32.9,0000.0,0010.09,0004.84,0004.20
2022-08-14 08:01:00,,0829.0,5.00,0.00,30.4,28.5,00.0,38.7,31.7,32.9,0000.0,0010.10,0004.84,0004.19
2022-08-14 08:02:00,,0829.0,5.01,0.00,30.4,28.6,00.0,38.8,31.8,32.7,0000.0,0010.65,0004.85,0004.18
2022-08-14 08:03:00,,0829.1,5.00,0.00,30.4,28.7,00.0,38.8,31.8,31.8,0000.0,0010.03,0004.86,0004.17
2022-08-14 08:04:00,,0829.1,5.00,0.00,30.4,28.7,00.0,38.9,31.8,33.1,0000.0,0009.58,0004.86,0004.17
2022-08-14 08:05:00,,0829.1,4.99,0.00,30.4,28.8,00.0,38.9,31.8,33.3,0000.0,0009.19,0004.91,0004.17
2022-08-14 08:06:00,,0829.1,5.00,0.00,30.4,28.8,00.0,38.9,31.9,33.7,0000.0,0009.15,0004.93,0004.16
2022-08-14 08:07:00,,0829.1,5.00,0.00,30.4,28.9,00.0,38.9,31.9,33.1,0000.0,0009.06,0004.90,0004.15
2022-08-14 08:08:00,,0829.1,5.01,0.00,30.4,28.8,00.0,38.9,31.8,32.8,0000.0,0009.00,0004.87,0004.15
2022-08-14 08:09:00,,0829.0,5.00,0.00,30.4,28.0,00.0,38.9,31.6,32.8,0000.0,0009.01,0004.86,0004.15
2022-08-14 08:10:00,,0829.0,5.01,0.00,30.3,27.7,00.0,38.9,31.5,32.5,0000.0,0008.92,0004.83,0004.16
2022-08-14 08:11:00,,0829.0,5.00,0.00,30.2,27.6,00.0,38.8,31.4,32.7,0000.0,0008.91,0004.82,0004.16
2022-08-14 08:12:00,,0829.0,4.99,0.00,30.1,27.6,00.0,38.8,31.4,32.6,0000.0,0008.85,0004.79,0004.15
2022-08-14 08:13:00,,0828.9,5.00,0.00,30.1,27.7,00.0,38.8,31.4,32.6,0000.0,0008.48,0004.76,0004.15
2022-08-14 08:14:00,,0829.0,4.99,0.00,30.0,27.8,00.0,38.8,31.5,32.7,0000.0,0008.64,0004.77,0004.15
2022-08-14 08:15:00,,0828.9,5.01,0.00,30.0,28.0,00.0,38.8,31.5,32.6,0000.0,0008.64,0004.77,0004.15
2022-08-14 08:16:00,,0828.9,5.00,0.00,30.0,28.1,00.0,38.8,31.5,32.6,0000.0,0008.42,0004.72,0004.14
2022-08-14 08:17:00,,0829.0,5.00,0.00,30.0,28.2,00.0,38.8,31.5,32.7,0000.0,0008.83,0004.70,0004.13
2022-08-14 08:18:00,,0828.9,5.00,0.00,30.0,28.3,00.0,38.8,31.6,32.8,0000.0,0009.06,0004.74,0004.13
2022-08-14 08:19:00,,0828.9,4.99,0.00,30.0,28.4,00.0,38.8,31.6,32.5,0000.0,0009.50,0004.73,0004.12
2022-08-14 08:20:00,,0828.9,5.01,0.00,30.0,28.5,00.0,38.7,31.7,32.2,0000.0,0009.74,0004.73,0004.13
2022-08-14 08:21:00,,0828.9,5.00,0.00,30.0,28.6,00.0,38.7,31.7,32.1,0000.0,0010.47,0004.72,0004.11
2022-08-14 08:22:00,,0828.9,5.00,0.00,30.0,28.7,00.0,38.7,31.7,31.9,0000.0,0010.69,0004.71,0004.11
2022-08-14 08:23:00,,0829.0,5.00,0.00,30.0,28.7,00.0,38.8,31.7,32.1,0000.0,0010.84,0004.71,0004.10
2022-08-14 08:24:00,,0829.0,5.00,0.00,30.0,28.8,00.0,38.8,31.8,32.1,0000.0,0010.64,0004.69,0004.09
2022-08-14 08:25:00,,0829.0,5.00,0.00,30.1,28.8,00.0,38.8,31.7,32.2,0000.0,0010.30,0004.67,0004.10
2022-08-14 08:26:00,,0829.0,5.00,0.00,30.1,28.9,00.0,38.8,31.8,32.2,0000.0,0010.36,0004.66,0004.10
2022-08-14 08:27:00,,0828.9,5.00,0.00,30.1,28.8,00.0,38.8,31.8,32.3,0000.0,0010.46,0004.69,0004.10
2022-08-14 08:28:00,,0829.0,5.01,0.00,30.1,28.2,00.0,38.7,31.6,32.2,0000.0,0010.01,0004.70,0004.10
2022-08-14 08:29:00,,0829.0,5.01,0.00,30.0,27.7,00.0,38.7,31.5,32.4,0000.0,0009.80,0004.67,0004.09
2022-08-14 08:30:00,,0829.0,5.00,0.00,29.9,27.5,00.0,38.7,31.3,32.5,0000.0,0009.42,0004.70,0004.09
2022-08-14 08:31:00,,0828.9,4.99,0.00,29.8,27.6,00.0,38.6,31.3,32.7,0000.0,0009.14,0004.69,0004.08
2022-08-14 08:32:00,,0828.9,5.01,0.00,29.8,27.7,00.0,38.6,31.3,32.6,0000.0,0008.54,0004.71,0004.07
2022-08-14 08:33:00,,0828.9,5.00,0.00,29.8,27.8,00.0,38.6,31.4,32.7,0000.0,0008.46,0004.77,0004.07
2022-08-14 08:34:00,,0828.9,4.99,0.00,29.7,27.9,00.0,38.6,31.4,32.7,0000.0,0008.33,0004.75,0004.06
2022-08-14 08:35:00,,0828.9,5.00,0.00,29.7,28.1,00.0,38.6,31.4,32.7,0000.0,0008.35,0004.75,0004.04
2022-08-14 08:36:00,,0828.9,5.01,0.00,29.7,28.2,00.0,38.6,31.4,32.8,0000.0,0008.45,0004.72,0004.02
2022-08-14 08:37:00,,0828.8,5.00,0.00,29.7,28.3,00.0,38.6,31.5,32.7,0000.0,0008.86,0004.71,0004.00
2022-08-14 08:38:00,,0828.8,5.00,0.00,29.8,28.4,00.0,38.6,31.5,32.7,0000.0,0008.71,0004.66,0003.99
2022-08-14 08:39:00,,0828.8,4.99,0.00,29.8,28.5,00.0,38.6,31.5,32.6,0000.0,0008.72,0004.65,0003.98
2022-08-14 08:40:00,,0828.8,4.99,0.00,29.8,28.5,00.0,38.6,31.6,32.4,0000.0,0008.79,0004.66,0003.97
2022-08-14 08:41:00,,0828.8,5.00,0.00,29.8,28.6,00.0,38.6,31.6,32.2,0000.0,0008.85,0004.66,0003.96
2022-08-14 08:42:00,,0828.8,5.00,0.00,29.8,28.7,00.0,38.6,31.6,32.2,0000.0,0009.01,0004.65,0003.96
2022-08-14 08:43:00,,0829.0,5.00,0.00,29.8,28.7,00.0,38.6,31.7,32.0,0000.0,0009.97,0004.64,0003.97
2022-08-14 08:44:00,,0828.8,5.01,0.00,29.8,28.8,00.0,38.6,31.7,32.0,0000.0,0010.37,0004.60,0003.96
2022-08-14 08:45:00,,0829.2,5.01,0.00,29.9,28.8,00.0,38.6,31.7,32.1,0000.0,0010.34,0004.60,0003.96
2022-08-14 08:46:00,,0829.1,5.00,0.00,29.9,28.6,00.0,38.6,31.6,32.1,0000.0,0010.42,0004.63,0003.95
2022-08-14 08:47:00,,0829.3,5.00,0.00,29.8,28.0,00.0,38.5,31.4,32.1,0000.0,0010.46,0004.67,0003.95
2022-08-14 08:48:00,,0829.3,5.00,0.00,29.8,27.6,00.0,38.5,31.4,32.1,0000.0,0010.00,0004.68,0003.95
2022-08-14 08:49:00,,0829.3,5.01,0.00,29.7,27.5,00.0,38.5,31.2,32.1,0000.0,0009.98,0004.68,0003.95
2022-08-14 08:50:00,,0829.0,5.01,0.00,29.6,27.6,00.0,38.5,31.2,32.2,0000.0,0010.27,0004.74,0003.95
2022-08-14 08:51:00,,0828.8,5.00,0.00,29.6,27.7,00.0,38.5,31.3,32.2,0000.0,0010.86,0004.73,0003.94
2022-08-14 08:52:00,,0828.7,5.00,0.00,29.6,27.8,00.0,38.4,31.3,32.2,0000.0,0011.53,0004.74,0003.94
2022-08-14 08:53:00,,0828.8,5.00,0.00,29.6,27.9,00.0,38.4,31.3,32.2,0000.0,0011.90,0004.81,0003.93
2022-08-14 08:54:00,,0828.8,5.01,0.00,29.6,28.1,00.0,38.4,31.4,32.0,0000.0,0011.03,0004.83,0003.92
2022-08-14 08:55:00,,0828.7,5.00,0.00,29.6,28.2,00.0,38.4,31.4,32.0,0000.0,0010.98,0004.83,0003.91
2022-08-14 08:56:00,,0828.7,5.00,0.00,29.6,28.3,00.0,38.4,31.4,32.0,0000.0,0012.19,0004.83,0003.90
2022-08-14 08:57:00,,0828.7,4.99,0.00,29.6,28.4,00.0,38.4,31.4,31.9,0000.0,0012.44,0004.84,0003.90
2022-08-14 08:58:00,,0828.7,4.99,0.00,29.6,28.4,00.0,38.4,31.5,31.8,0000.0,0012.72,0004.84,0003.91
2022-08-14 08:59:00,,0828.7,5.00,0.00,29.6,28.5,00.0,38.4,31.5,31.7,0000.0,0012.95,0004.85,0003.91
